Date String (YYYY-MM-DD hh:mm:ss) UTC,Instrument flags,absolute air pressure of the measurement (hPa),sample flow rate (lpm),inlet stack bypass flow (lpm),air temperature of the measurement (°C),ambient temperature measured by the external sensor (°C),aerosol sample conditioner tube jacket temperature (°C),OPC LED temperature (°C),internal box temperature (°C),relative humidity of the measurement (%),span deviation,mass concentration of particles derived from Lorenz-Mie calculation of OPC scattering (μg/m³),mass concentration of particles derived from Lorenz-Mie calculation of OPC scattering (μg/m³),mass concentration of particles derived from Lorenz-Mie calculation of OPC scattering (μg/m³)
DateTimeUTC,F1_M11,P_M11,Q1_M11,Q2_M11,T1_M11,T2_M11,T3_M11,T4_M11,T5_M11,U1_M11,ZSPAN_M11,X0_M11,X2_M11,X1_M11
2024-01-30 05:00:00,SystemResetWarning,0837.5,5.01,000.00,025.0,023.7,000.0,033.4,026.4,15.2,0000.0,0007.90,0002.68,0002.06
2024-01-30 05:01:00,SystemResetWarning,0837.6,5.00,000.00,025.0,023.7,000.0,033.4,026.4,15.2,0000.0,0007.64,0002.69,0002.06
2024-01-30 05:02:00,SystemResetWarning,0837.6,5.00,000.00,025.0,023.7,000.0,033.4,026.4,15.2,0000.0,0007.30,0002.70,0002.06
2024-01-30 05:03:00,SystemResetWarning,0837.6,5.00,000.00,025.0,023.7,000.0,033.4,026.4,15.2,0000.0,0007.30,0002.66,0002.06
2024-01-30 05:04:00,SystemResetWarning,0837.5,5.00,000.00,025.0,023.7,000.0,033.4,026.4,15.2,0000.0,0007.06,0002.59,0002.04
2024-01-30 05:05:00,SystemResetWarning,0837.5,5.00,000.00,025.0,023.7,000.0,033.3,026.3,15.2,0000.0,0007.32,0002.58,0002.03
2024-01-30 05:06:00,SystemResetWarning,0837.5,5.00,000.00,025.0,023.7,000.0,033.3,026.3,15.2,0000.0,0007.43,0002.54,0002.02
2024-01-30 05:07:00,SystemResetWarning,0837.6,5.00,000.00,025.0,023.7,000.0,033.3,026.4,15.2,0000.0,0007.19,0002.50,0002.01
2024-01-30 05:08:00,SystemResetWarning,0837.6,5.00,000.00,025.0,023.6,000.0,033.3,026.3,15.2,0000.0,0006.96,0002.51,0002.01
2024-01-30 05:09:00,SystemResetWarning,0837.5,5.00,000.00,025.0,023.6,000.0,033.3,026.3,15.2,0000.0,0007.27,0002.54,0002.01
2024-01-30 05:10:00,SystemResetWarning,0837.5,5.00,000.00,024.9,023.6,000.0,033.3,026.3,15.3,0000.0,0007.49,0002.54,0002.01
2024-01-30 05:11:00,SystemResetWarning,0837.6,5.00,000.00,024.9,023.6,000.0,033.3,026.3,15.3,0000.0,0006.64,0002.53,0002.00
2024-01-30 05:12:00,SystemResetWarning,0837.5,5.00,000.00,024.9,023.6,000.0,033.3,026.3,15.3,0000.0,0006.31,0002.55,0001.99
2024-01-30 05:13:00,SystemResetWarning,0837.5,5.00,000.00,024.9,023.6,000.0,033.3,026.3,15.3,0000.0,0005.74,0002.51,0001.99
2024-01-30 05:14:00,SystemResetWarning,0837.5,5.00,000.00,024.9,023.6,000.0,033.3,026.3,15.3,0000.0,0005.58,0002.54,0001.98
2024-01-30 05:15:00,SystemResetWarning,0837.4,5.00,000.00,024.9,023.6,000.0,033.3,026.3,15.3,0000.0,0005.71,0002.58,0001.98
2024-01-30 05:16:00,SystemResetWarning,0837.4,4.99,000.00,024.9,023.6,000.0,033.3,026.3,15.3,0000.0,0005.87,0002.66,0001.99
2024-01-30 05:17:00,SystemResetWarning,0837.5,5.00,000.00,024.9,023.5,000.0,033.3,026.3,15.3,0000.0,0005.55,0002.70,0001.99
2024-01-30 05:18:00,SystemResetWarning,0837.4,5.00,000.00,024.9,023.5,000.0,033.2,026.3,15.3,0000.0,0005.44,0002.68,0001.99
2024-01-30 05:19:00,SystemResetWarning,0837.4,5.00,000.00,024.9,023.5,000.0,033.2,026.2,15.3,0000.0,0005.54,0002.71,0001.99
2024-01-30 05:20:00,SystemResetWarning,0837.4,5.00,000.00,024.8,023.5,000.0,033.2,026.2,15.3,0000.0,0005.98,0002.69,0001.99
2024-01-30 05:21:00,SystemResetWarning,0837.4,5.00,000.00,024.8,023.5,000.0,033.2,026.2,15.3,0000.0,0006.05,0002.70,0001.99
2024-01-30 05:22:00,SystemResetWarning,0837.4,5.00,000.00,024.8,023.5,000.0,033.2,026.2,15.3,0000.0,0006.34,0002.71,0001.98
2024-01-30 05:23:00,SystemResetWarning,0837.4,5.00,000.00,024.8,023.5,000.0,033.2,026.2,15.3,0000.0,0007.34,0002.73,0001.99
2024-01-30 05:24:00,SystemResetWarning,0837.4,5.00,000.00,024.8,023.5,000.0,033.2,026.2,15.3,0000.0,0007.30,0002.72,0002.00
2024-01-30 05:25:00,SystemResetWarning,0837.3,5.00,000.00,024.8,023.5,000.0,033.2,026.2,15.3,0000.0,0007.27,0002.70,0002.00
2024-01-30 05:26:00,SystemResetWarning,0837.3,5.00,000.00,024.8,023.5,000.0,033.2,026.2,15.4,0000.0,0007.48,0002.73,0002.02
2024-01-30 05:27:00,SystemResetWarning,0837.3,5.00,000.00,024.8,023.5,000.0,033.2,026.2,15.4,0000.0,0007.19,0002.66,0002.03
2024-01-30 05:28:00,SystemResetWarning,0837.3,5.00,000.00,024.8,023.5,000.0,033.2,026.2,15.4,0000.0,0007.12,0002.66,0002.03
2024-01-30 05:29:00,SystemResetWarning,0837.2,5.00,000.00,024.8,023.5,000.0,033.1,026.2,15.4,0000.0,0007.05,0002.69,0002.05
2024-01-30 05:30:00,SystemResetWarning,0837.2,5.00,000.00,024.8,023.5,000.0,033.1,026.2,15.4,0000.0,0006.99,0002.66,0002.06
2024-01-30 05:31:00,SystemResetWarning,0837.2,5.00,000.00,024.8,023.4,000.0,033.1,026.1,15.4,0000.0,0006.45,0002.74,0002.07
2024-01-30 05:32:00,SystemResetWarning,0837.2,5.00,000.00,024.8,023.4,000.0,033.1,026.1,15.4,0000.0,0006.89,0002.81,0002.08
2024-01-30 05:33:00,SystemResetWarning,0837.2,5.00,000.00,024.7,023.4,000.0,033.1,026.1,15.4,0000.0,0007.34,0002.84,0002.10
2024-01-30 05:34:00,SystemResetWarning,0837.2,5.01,000.00,024.7,023.4,000.0,033.1,026.1,15.4,0000.0,0006.38,0002.86,0002.10
2024-01-30 05:35:00,SystemResetWarning,0837.2,5.01,000.00,024.7,023.4,000.0,033.1,026.1,15.5,0000.0,0006.84,0002.95,0002.10
2024-01-30 05:36:00,SystemResetWarning,0837.2,5.01,000.00,024.7,023.4,000.0,033.1,026.1,15.5,0000.0,0007.13,0003.04,0002.12
2024-01-30 05:37:00,SystemResetWarning,0837.2,4.99,000.00,024.7,023.4,000.0,033.1,026.1,15.4,0000.0,0006.92,0003.09,0002.14
2024-01-30 05:38:00,SystemResetWarning,0837.2,5.00,000.00,024.7,023.4,000.0,033.1,026.1,15.5,0000.0,0006.99,0003.08,0002.15
2024-01-30 05:39:00,SystemResetWarning,0837.2,5.00,000.00,024.7,023.4,000.0,033.1,026.1,15.5,0000.0,0007.15,0003.06,0002.17
2024-01-30 05:40:00,SystemResetWarning,0837.2,5.00,000.00,024.7,023.4,000.0,033.1,026.1,15.5,0000.0,0007.19,0003.07,0002.17
2024-01-30 05:41:00,SystemResetWarning,0837.2,5.01,000.00,024.7,023.4,000.0,033.0,026.1,15.5,0000.0,0007.14,0003.09,0002.18
2024-01-30 05:42:00,SystemResetWarning,0837.2,5.01,000.00,024.7,023.3,000.0,033.0,026.1,15.5,0000.0,0007.29,0003.08,0002.18
2024-01-30 05:43:00,SystemResetWarning,0837.2,5.00,000.00,024.7,023.3,000.0,033.0,026.1,15.5,0000.0,0008.16,0003.00,0002.20
2024-01-30 05:44:00,SystemResetWarning,0837.2,5.00,000.00,024.7,023.3,000.0,033.0,026.0,15.5,0000.0,0008.03,0003.01,0002.20
2024-01-30 05:45:00,SystemResetWarning,0837.2,5.00,000.00,024.6,023.3,000.0,033.0,026.0,15.5,0000.0,0008.08,0003.01,0002.21
2024-01-30 05:46:00,SystemResetWarning,0837.3,5.00,000.00,024.6,023.3,000.0,033.0,026.0,15.6,0000.0,0008.11,0003.00,0002.23
2024-01-30 05:47:00,SystemResetWarning,0837.2,5.00,000.00,024.6,023.3,000.0,033.0,026.0,15.6,0000.0,0008.17,0002.96,0002.24
2024-01-30 05:48:00,SystemResetWarning,0837.2,5.01,000.00,024.6,023.3,000.0,033.0,026.0,15.6,0000.0,0008.26,0002.90,0002.23
2024-01-30 05:49:00,SystemResetWarning,0837.2,5.01,000.00,024.6,023.3,000.0,033.0,026.0,15.6,0000.0,0008.77,0002.95,0002.21
2024-01-30 05:50:00,SystemResetWarning,0837.2,5.00,000.00,024.6,023.3,000.0,033.0,026.0,15.6,0000.0,0009.24,0003.00,0002.23
2024-01-30 05:51:00,SystemResetWarning,0837.2,5.00,000.00,024.6,023.3,000.0,033.0,026.0,15.6,0000.0,0009.50,0003.01,0002.23
2024-01-30 05:52:00,SystemResetWarning,0837.2,4.99,000.00,024.6,023.3,000.0,033.0,025.9,15.6,0000.0,0009.61,0003.04,0002.24
2024-01-30 05:53:00,SystemResetWarning,0837.2,5.00,000.00,024.6,023.3,000.0,033.0,025.9,15.7,0000.0,0009.71,0003.06,0002.23
2024-01-30 05:54:00,SystemResetWarning,0837.2,5.00,000.00,024.6,023.3,000.0,033.0,025.9,15.7,0000.0,0008.77,0003.06,0002.21
2024-01-30 05:55:00,SystemResetWarning,0837.2,5.00,000.00,024.5,023.3,000.0,032.9,025.9,15.7,0000.0,0008.09,0003.04,0002.21
2024-01-30 05:56:00,SystemResetWarning,0837.2,5.00,000.00,024.5,023.2,000.0,032.9,026.0,15.7,0000.0,0008.01,0003.08,0002.20
2024-01-30 05:57:00,SystemResetWarning,0837.2,5.01,000.00,024.5,023.2,000.0,032.9,026.0,15.7,0000.0,0008.56,0003.03,0002.18
2024-01-30 05:58:00,SystemResetWarning,0837.2,5.01,000.00,024.5,023.2,000.0,032.9,025.9,15.7,0000.0,0009.11,0002.99,0002.17
2024-01-30 05:59:00,SystemResetWarning,0837.2,5.00,000.00,024.5,023.2,000.0,032.9,025.9,15.7,0000.0,0009.31,0002.98,0002.17
